MPH9117 LPPT-LPPR

Flight info

Callsign MPH9117
Flight time 0h 31m
Altitude 20000
Route IXIDA DCT ABLEG
Aircraft MD11/H-SDE1E2E3FGHIJ2J3J4J5M1RWXY/LB1D1

Departure

Time 2026-05-04 12:54
Airport Lisbon Humberto Delgado Airport (LPPT)

Arrival

Time 2026-05-04 13:25
Airport Francisco de Sá Carneiro Airport (LPPR)
Time Latitude Longitude Altitude Speed Heading
2026-05-04 12:32 38.76779 -9.13716 359 ft 0 kts 78°
2026-05-04 12:46 38.76779 -9.13717 359 ft 1 kts 78°
2026-05-04 12:46 38.76776 -9.13734 363 ft 3 kts 78°
2026-05-04 12:46 38.76772 -9.13759 367 ft 3 kts 82°
2026-05-04 12:46 38.76770 -9.13784 364 ft 3 kts 96°
2026-05-04 12:47 38.76773 -9.13804 366 ft 3 kts 127°
2026-05-04 12:47 38.76778 -9.13814 367 ft 2 kts 167°
2026-05-04 12:47 38.76790 -9.13818 367 ft 3 kts 168°
2026-05-04 12:47 38.76807 -9.13822 364 ft 1 kts 168°
2026-05-04 12:48 38.76808 -9.13822 363 ft 3 kts 168°
2026-05-04 12:50 38.76797 -9.13819 363 ft 3 kts 168°
2026-05-04 12:50 38.76748 -9.13807 364 ft 12 kts 168°
2026-05-04 12:51 38.76648 -9.13784 365 ft 14 kts 183°
2026-05-04 12:51 38.76596 -9.13856 363 ft 11 kts 252°
2026-05-04 12:51 38.76574 -9.13969 362 ft 15 kts 258°
2026-05-04 12:51 38.76561 -9.14095 364 ft 14 kts 272°
2026-05-04 12:52 38.76585 -9.14209 363 ft 13 kts 290°
2026-05-04 12:52 38.76617 -9.14308 365 ft 11 kts 293°
2026-05-04 12:52 38.76655 -9.14360 362 ft 6 kts 338°
2026-05-04 12:52 38.76692 -9.14360 363 ft 5 kts 10°
2026-05-04 12:53 38.76715 -9.14349 364 ft 0 kts 22°
2026-05-04 12:53 38.76720 -9.14347 363 ft 4 kts 22°
2026-05-04 12:53 38.77053 -9.14169 366 ft 109 kts 23°
2026-05-04 12:53 38.78041 -9.13632 499 ft 183 kts 20°
2026-05-04 12:54 38.79166 -9.12977 1926 ft 169 kts 20°
2026-05-04 12:54 38.80233 -9.12365 3431 ft 170 kts 19°
2026-05-04 12:54 38.81391 -9.11741 4385 ft 193 kts 20°
2026-05-04 12:54 38.82647 -9.10794 4760 ft 236 kts 37°
2026-05-04 12:55 38.83820 -9.09129 5275 ft 260 kts 48°
2026-05-04 12:55 38.84939 -9.07238 6331 ft 267 kts 51°
2026-05-04 12:55 38.86036 -9.05290 7406 ft 274 kts 51°
2026-05-04 12:55 38.87162 -9.03280 8464 ft 279 kts 50°
2026-05-04 12:56 38.88421 -9.01373 9518 ft 282 kts 44°
2026-05-04 12:56 38.89806 -8.99536 10353 ft 299 kts 42°
2026-05-04 12:56 38.91376 -8.97532 10470 ft 337 kts 41°
2026-05-04 12:56 38.93119 -8.95322 10965 ft 359 kts 42°
2026-05-04 12:57 38.94917 -8.93029 11912 ft 368 kts 42°
2026-05-04 12:57 38.96755 -8.90680 12843 ft 376 kts 42°
2026-05-04 12:57 38.98629 -8.88282 13770 ft 385 kts 41°
2026-05-04 12:57 39.00523 -8.85855 14599 ft 392 kts 41°
2026-05-04 12:58 39.02470 -8.83358 15502 ft 398 kts 41°
2026-05-04 12:58 39.04472 -8.80788 16383 ft 404 kts 41°
2026-05-04 12:58 39.06478 -8.78211 17269 ft 410 kts 41°
2026-05-04 12:58 39.08483 -8.75644 18106 ft 415 kts 40°
2026-05-04 12:59 39.10819 -8.73455 18813 ft 416 kts 24°
2026-05-04 12:59 39.13525 -8.72145 19160 ft 411 kts
2026-05-04 12:59 39.16330 -8.71694 19520 ft 405 kts 358°
2026-05-04 12:59 39.18199 -8.71618 19773 ft 405 kts 356°
2026-05-04 13:00 39.21028 -8.71605 20023 ft 406 kts 355°
2026-05-04 13:00 39.23832 -8.71589 20067 ft 393 kts 356°
2026-05-04 13:00 39.26470 -8.71522 20076 ft 366 kts 356°
2026-05-04 13:00 39.28979 -8.71422 20053 ft 356 kts 356°
2026-05-04 13:01 39.31421 -8.71308 20078 ft 354 kts 356°
2026-05-04 13:01 39.33880 -8.71184 20084 ft 354 kts 357°
2026-05-04 13:01 39.36338 -8.71050 20085 ft 354 kts 357°
2026-05-04 13:01 39.38803 -8.70911 20084 ft 354 kts 357°
2026-05-04 13:02 39.41260 -8.70769 20101 ft 354 kts 357°
2026-05-04 13:02 39.43725 -8.70624 20098 ft 354 kts 357°
2026-05-04 13:02 39.46186 -8.70478 20093 ft 354 kts 357°
2026-05-04 13:02 39.48644 -8.70331 20088 ft 354 kts 357°
2026-05-04 13:03 39.51109 -8.70184 20097 ft 354 kts 357°
2026-05-04 13:03 39.53572 -8.70037 20092 ft 353 kts 357°
2026-05-04 13:03 39.55999 -8.69891 20095 ft 354 kts 357°
2026-05-04 13:03 39.58466 -8.69744 20097 ft 354 kts 357°
2026-05-04 13:04 39.60932 -8.69597 20096 ft 354 kts 357°
2026-05-04 13:04 39.63323 -8.69453 20097 ft 354 kts 357°
2026-05-04 13:04 39.65785 -8.69306 20100 ft 354 kts 357°
2026-05-04 13:04 39.68245 -8.69158 20100 ft 354 kts 357°
2026-05-04 13:05 39.70715 -8.69010 20101 ft 354 kts 357°
2026-05-04 13:05 39.73176 -8.68862 20101 ft 354 kts 357°
2026-05-04 13:05 39.75640 -8.68713 20099 ft 354 kts 357°
2026-05-04 13:05 39.78111 -8.68565 20103 ft 355 kts 357°
2026-05-04 13:06 39.80572 -8.68416 20100 ft 354 kts 357°
2026-05-04 13:06 39.83042 -8.68267 20099 ft 354 kts 357°
2026-05-04 13:06 39.85503 -8.68118 20100 ft 354 kts 357°
2026-05-04 13:06 39.87930 -8.67972 20100 ft 354 kts 357°
2026-05-04 13:07 39.90387 -8.67824 20101 ft 354 kts 357°
2026-05-04 13:07 39.92813 -8.67677 20099 ft 354 kts 357°
2026-05-04 13:07 39.95279 -8.67528 20102 ft 354 kts 357°
2026-05-04 13:07 39.97738 -8.67378 20098 ft 354 kts 357°
2026-05-04 13:08 40.00200 -8.67228 20098 ft 354 kts 357°
2026-05-04 13:08 40.02658 -8.67079 20100 ft 354 kts 357°
2026-05-04 13:08 40.05137 -8.66929 20039 ft 364 kts 357°
2026-05-04 13:08 40.07796 -8.66783 19404 ft 391 kts 358°
2026-05-04 13:09 40.10520 -8.66622 18826 ft 395 kts 358°
2026-05-04 13:09 40.13277 -8.66451 18253 ft 397 kts 358°
2026-05-04 13:09 40.16041 -8.66278 17655 ft 399 kts 358°
2026-05-04 13:09 40.18802 -8.66105 17102 ft 396 kts 358°
2026-05-04 13:10 40.21547 -8.65932 16579 ft 393 kts 358°
2026-05-04 13:10 40.24273 -8.65763 16062 ft 390 kts 359°
2026-05-04 13:10 40.26967 -8.65596 15576 ft 387 kts 359°
2026-05-04 13:10 40.29650 -8.65431 15063 ft 383 kts 359°
2026-05-04 13:11 40.32264 -8.65271 14581 ft 380 kts 359°
2026-05-04 13:11 40.34932 -8.65107 14076 ft 377 kts 359°
2026-05-04 13:11 40.37538 -8.64948 13554 ft 374 kts 359°
2026-05-04 13:11 40.40089 -8.64792 13039 ft 370 kts 359°
2026-05-04 13:12 40.42658 -8.64635 12550 ft 367 kts 360°
2026-05-04 13:12 40.45195 -8.64479 12084 ft 365 kts 360°
2026-05-04 13:12 40.47719 -8.64325 11635 ft 362 kts
2026-05-04 13:12 40.50219 -8.64169 11250 ft 358 kts
2026-05-04 13:13 40.52701 -8.64017 11080 ft 351 kts
2026-05-04 13:13 40.55051 -8.63869 10967 ft 326 kts
2026-05-04 13:13 40.57238 -8.63730 10844 ft 303 kts 360°
2026-05-04 13:13 40.59275 -8.63600 10746 ft 286 kts 360°
2026-05-04 13:14 40.61272 -8.63478 10649 ft 286 kts 360°
2026-05-04 13:14 40.63257 -8.63359 10492 ft 286 kts 360°
2026-05-04 13:14 40.65247 -8.63239 10181 ft 286 kts 360°
2026-05-04 13:14 40.67229 -8.63117 9697 ft 284 kts
2026-05-04 13:15 40.69194 -8.62996 9228 ft 281 kts
2026-05-04 13:15 40.71128 -8.62876 8796 ft 276 kts
2026-05-04 13:15 40.73048 -8.62757 8382 ft 275 kts 360°
2026-05-04 13:15 40.74955 -8.62639 7966 ft 274 kts
2026-05-04 13:16 40.76855 -8.62522 7590 ft 271 kts
2026-05-04 13:16 40.78714 -8.62408 7230 ft 270 kts
2026-05-04 13:16 40.80586 -8.62291 6861 ft 269 kts
2026-05-04 13:16 40.82451 -8.62176 6457 ft 267 kts
2026-05-04 13:17 40.84298 -8.62061 6045 ft 264 kts
2026-05-04 13:17 40.86126 -8.61946 5664 ft 262 kts
2026-05-04 13:17 40.87943 -8.61833 5297 ft 261 kts
2026-05-04 13:17 40.89751 -8.61720 4983 ft 260 kts
2026-05-04 13:18 40.91557 -8.61608 4649 ft 258 kts
2026-05-04 13:18 40.93347 -8.61495 4321 ft 257 kts
2026-05-04 13:18 40.95125 -8.61384 4062 ft 251 kts
2026-05-04 13:18 40.96807 -8.61275 4003 ft 234 kts 360°
2026-05-04 13:19 40.98374 -8.61329 3993 ft 222 kts 349°
2026-05-04 13:19 40.99917 -8.61674 3784 ft 227 kts 347°
2026-05-04 13:19 41.01441 -8.62062 3448 ft 219 kts 346°
2026-05-04 13:19 41.02897 -8.62442 3125 ft 206 kts 346°
2026-05-04 13:20 41.04268 -8.62802 3018 ft 201 kts 346°
2026-05-04 13:20 41.05618 -8.63160 3018 ft 198 kts 346°
2026-05-04 13:20 41.06980 -8.63515 3017 ft 196 kts 346°
2026-05-04 13:20 41.08250 -8.63841 2959 ft 179 kts 346°
2026-05-04 13:21 41.09454 -8.64154 2988 ft 178 kts 346°
2026-05-04 13:21 41.10684 -8.64476 2847 ft 183 kts 346°
2026-05-04 13:21 41.11900 -8.64792 2544 ft 177 kts 346°
2026-05-04 13:21 41.13097 -8.65105 2228 ft 175 kts 346°
2026-05-04 13:22 41.14260 -8.65407 1857 ft 164 kts 346°
2026-05-04 13:22 41.15305 -8.65678 1428 ft 147 kts 346°
2026-05-04 13:22 41.16310 -8.65938 1250 ft 160 kts 347°
2026-05-04 13:22 41.17465 -8.66208 1287 ft 163 kts 346°
2026-05-04 13:23 41.18572 -8.66487 1191 ft 161 kts 346°
2026-05-04 13:23 41.19632 -8.66762 962 ft 150 kts 346°
2026-05-04 13:23 41.20707 -8.67050 755 ft 161 kts 345°
2026-05-04 13:23 41.21768 -8.67325 543 ft 157 kts 346°
2026-05-04 13:24 41.22847 -8.67611 355 ft 158 kts 346°
2026-05-04 13:24 41.23920 -8.67888 244 ft 144 kts 345°
2026-05-04 13:24 41.24684 -8.68088 245 ft 83 kts 349°
2026-05-04 13:25 41.25195 -8.68136 242 ft 15 kts 18°
2026-05-04 13:25 41.25277 -8.68087 242 ft 11 kts 45°
2026-05-04 13:25 41.25280 -8.68045 242 ft 3 kts 111°
2026-05-04 13:25 41.25246 -8.68012 242 ft 12 kts 156°
2026-05-04 13:26 41.25154 -8.67983 242 ft 14 kts 168°
2026-05-04 13:26 41.25058 -8.67958 242 ft 14 kts 168°
2026-05-04 13:26 41.24971 -8.67935 243 ft 12 kts 169°
2026-05-04 13:26 41.24889 -8.67907 243 ft 13 kts 161°
2026-05-04 13:27 41.24804 -8.67854 243 ft 14 kts 155°
2026-05-04 13:27 41.24702 -8.67812 243 ft 16 kts 167°
2026-05-04 13:27 41.24589 -8.67781 243 ft 17 kts 169°
2026-05-04 13:27 41.24469 -8.67750 243 ft 18 kts 169°
2026-05-04 13:28 41.24353 -8.67720 242 ft 16 kts 167°
2026-05-04 13:28 41.24266 -8.67637 242 ft 15 kts 128°
2026-05-04 13:28 41.24178 -8.67569 242 ft 15 kts 165°
2026-05-04 13:28 41.24077 -8.67542 242 ft 15 kts 170°
2026-05-04 13:29 41.23981 -8.67516 242 ft 15 kts 168°
2026-05-04 13:29 41.23881 -8.67489 242 ft 15 kts 168°
2026-05-04 13:29 41.23795 -8.67467 242 ft 10 kts 169°
2026-05-04 13:29 41.23741 -8.67426 242 ft 9 kts 134°
2026-05-04 13:30 41.23722 -8.67387 242 ft 2 kts 103°
2026-05-04 13:30 41.23725 -8.67374 242 ft 1 kts 74°
2026-05-04 13:30 41.23735 -8.67355 242 ft 4 kts 50°
2026-05-04 13:30 41.23755 -8.67325 242 ft 4 kts 49°
2026-05-04 13:31 41.23767 -8.67307 242 ft 2 kts 49°
2026-05-04 13:31 41.23772 -8.67300 242 ft 0 kts 49°